RYR8Q EVRA-LKPR

Flight info

Callsign RYR8Q
Flight time N/A
Altitude 34000
Route VALED M869 LEP M864 ADAXA DCT NINTA DCT DIPEB DCT ANFEV DCT PENOR DCT LUXAL DCT LATAG DCT RASAN DCT ASTEL DCT GOLOP
Aircraft B738/M-VGDW/C

Departure

Time 2026-04-29 20:05
Airport Riga International Airport (EVRA)

Arrival

Time N/A
Airport Václav Havel Airport Prague (LKPR)
Time Latitude Longitude Altitude Speed Heading
2026-04-29 20:02 56.92280 23.97493 45 ft 14 kts 185°
2026-04-29 20:02 56.92153 23.97473 45 ft 21 kts 185°
2026-04-29 20:02 56.92005 23.97449 45 ft 21 kts 185°
2026-04-29 20:02 56.91957 23.97445 45 ft 21 kts 181°
2026-04-29 20:03 56.91720 23.97412 45 ft 20 kts 185°
2026-04-29 20:03 56.91585 23.97390 45 ft 19 kts 185°
2026-04-29 20:03 56.91453 23.97369 45 ft 19 kts 185°
2026-04-29 20:03 56.91336 23.97300 45 ft 18 kts 228°
2026-04-29 20:04 56.91283 23.97186 45 ft 18 kts 233°
2026-04-29 20:04 56.91242 23.96997 43 ft 10 kts 250°
2026-04-29 20:04 56.91286 23.96942 47 ft 10 kts
2026-04-29 20:04 56.91443 23.96969 46 ft 51 kts
2026-04-29 20:05 56.92034 23.97062 43 ft 117 kts
2026-04-29 20:05 56.93026 23.97217 90 ft 164 kts
2026-04-29 20:05 56.94158 23.97376 860 ft 155 kts
2026-04-29 20:05 56.95201 23.97483 1784 ft 150 kts
2026-04-29 20:06 56.96288 23.97616 2299 ft 167 kts
2026-04-29 20:06 56.97511 23.97776 2850 ft 183 kts
2026-04-29 20:06 56.98814 23.97976 3498 ft 190 kts
2026-04-29 20:06 57.00231 23.98254 3751 ft 218 kts
2026-04-29 20:07 57.01802 23.98559 4139 ft 239 kts
2026-04-29 20:07 57.03508 23.98877 4923 ft 245 kts
2026-04-29 20:07 57.05215 23.98993 5595 ft 247 kts 351°
2026-04-29 20:07 57.06773 23.97690 6195 ft 251 kts 323°
2026-04-29 20:08 57.07912 23.95218 6980 ft 258 kts 303°
2026-04-29 20:08 57.08465 23.93267 7518 ft 261 kts 299°
2026-04-29 20:08 57.09493 23.89168 8535 ft 266 kts 299°
2026-04-29 20:08 57.10263 23.86092 9310 ft 269 kts 300°
2026-04-29 20:09 57.10982 23.82865 10080 ft 278 kts 287°
2026-04-29 20:09 57.11026 23.79179 10460 ft 306 kts 263°
2026-04-29 20:09 57.10448 23.75238 10661 ft 331 kts 258°
2026-04-29 20:09 57.09773 23.71040 10828 ft 352 kts 258°
2026-04-29 20:10 57.08921 23.66664 10960 ft 378 kts 245°
2026-04-29 20:10 57.07211 23.62821 11213 ft 400 kts 223°
2026-04-29 20:10 57.05023 23.59675 11780 ft 406 kts 220°
2026-04-29 20:10 57.02773 23.56491 12401 ft 409 kts 220°
2026-04-29 20:11 57.00515 23.53228 13056 ft 413 kts 221°
2026-04-29 20:11 56.98262 23.49942 13695 ft 417 kts 221°
2026-04-29 20:11 56.95953 23.46658 14352 ft 421 kts 220°
2026-04-29 20:11 56.93609 23.43384 14921 ft 426 kts 220°
2026-04-29 20:12 56.91229 23.40074 15487 ft 431 kts 220°
2026-04-29 20:12 56.88824 23.36730 16053 ft 436 kts 220°
2026-04-29 20:12 56.86425 23.33387 16616 ft 441 kts 220°
2026-04-29 20:12 56.83966 23.29960 17153 ft 446 kts 220°
2026-04-29 20:13 56.81484 23.26498 17700 ft 450 kts 221°
2026-04-29 20:13 56.79310 23.22389 18199 ft 448 kts 240°
2026-04-29 20:13 56.77914 23.17362 18762 ft 442 kts 257°
2026-04-29 20:13 56.77280 23.11919 19257 ft 438 kts 267°
2026-04-29 20:14 56.76848 23.06397 19705 ft 442 kts 268°
2026-04-29 20:14 56.76420 23.00869 20139 ft 447 kts 267°
2026-04-29 20:14 56.75956 22.95219 20593 ft 451 kts 267°
2026-04-29 20:14 56.75460 22.89524 21049 ft 455 kts 266°
2026-04-29 20:15 56.74947 22.83795 21487 ft 459 kts 266°
2026-04-29 20:15 56.74449 22.78025 21916 ft 462 kts 268°
2026-04-29 20:15 56.73997 22.72206 22340 ft 465 kts 268°
2026-04-29 20:15 56.73557 22.66368 22744 ft 469 kts 268°
2026-04-29 20:16 56.73106 22.60446 23154 ft 472 kts 268°
2026-04-29 20:16 56.72648 22.54583 23547 ft 476 kts 268°
2026-04-29 20:16 56.72168 22.48563 23918 ft 479 kts 268°
2026-04-29 20:16 56.71610 22.42564 24252 ft 486 kts 264°
2026-04-29 20:17 56.70815 22.36509 24589 ft 491 kts 261°
2026-04-29 20:17 56.69900 22.30481 24906 ft 494 kts 260°
2026-04-29 20:17 56.68960 22.24531 25229 ft 497 kts 260°
2026-04-29 20:17 56.68003 22.18452 25520 ft 499 kts 261°
2026-04-29 20:18 56.67063 22.12347 25816 ft 502 kts 261°
2026-04-29 20:18 56.66145 22.06270 26106 ft 504 kts 261°
2026-04-29 20:18 56.65228 22.00118 26506 ft 503 kts 261°
2026-04-29 20:18 56.64337 21.94119 26968 ft 501 kts 262°
2026-04-29 20:19 56.63427 21.87995 27446 ft 500 kts 262°
2026-04-29 20:19 56.62529 21.81972 27879 ft 499 kts 262°
2026-04-29 20:19 56.61620 21.75893 28272 ft 500 kts 262°
2026-04-29 20:19 56.60699 21.69768 28664 ft 500 kts 262°
2026-04-29 20:20 56.59780 21.63680 29095 ft 500 kts 262°
2026-04-29 20:20 56.58853 21.57575 29515 ft 500 kts 262°
2026-04-29 20:20 56.57942 21.51594 29924 ft 500 kts 262°
2026-04-29 20:20 56.57021 21.45572 30329 ft 500 kts 262°
2026-04-29 20:21 56.56088 21.39493 30687 ft 500 kts 263°
2026-04-29 20:21 56.55152 21.33413 31011 ft 500 kts 263°
2026-04-29 20:21 56.54214 21.27342 31337 ft 500 kts 263°
2026-04-29 20:21 56.53281 21.21324 31658 ft 500 kts 263°
2026-04-29 20:22 56.52337 21.15251 31968 ft 501 kts 263°
2026-04-29 20:22 56.51390 21.09140 32277 ft 500 kts 264°
2026-04-29 20:22 56.50664 21.03008 32578 ft 493 kts 270°
2026-04-29 20:22 56.50123 20.96898 32895 ft 491 kts 271°
2026-04-29 20:23 56.49636 20.90777 33211 ft 490 kts 272°
2026-04-29 20:23 56.49161 20.84722 33518 ft 490 kts 272°
2026-04-29 20:23 56.48664 20.78612 33821 ft 491 kts 271°
2026-04-29 20:23 56.48145 20.72494 34133 ft 491 kts 271°
2026-04-29 20:24 56.47609 20.66379 34450 ft 491 kts 271°
2026-04-29 20:24 56.47064 20.60289 34764 ft 489 kts 271°
2026-04-29 20:24 56.46517 20.54240 35103 ft 486 kts 270°
2026-04-29 20:24 56.45975 20.48281 35421 ft 484 kts 270°
2026-04-29 20:25 56.45426 20.42247 35733 ft 482 kts 270°
2026-04-29 20:25 56.44881 20.36270 36060 ft 480 kts 270°
2026-04-29 20:25 56.44338 20.30328 36357 ft 478 kts 269°
2026-04-29 20:25 56.43794 20.24396 36403 ft 482 kts 269°
2026-04-29 20:26 56.42641 20.12308 36418 ft 491 kts 268°
2026-04-29 20:26 56.41405 20.00068 36421 ft 497 kts 268°
2026-04-29 20:27 56.40365 19.89896 36415 ft 499 kts 268°
2026-04-29 20:27 56.38889 19.75514 36416 ft 500 kts 268°
2026-04-29 20:28 56.37613 19.63161 36415 ft 500 kts 268°
2026-04-29 20:28 56.36325 19.50810 36416 ft 499 kts 268°
2026-04-29 20:29 56.35036 19.38576 36420 ft 498 kts 268°
2026-04-29 20:29 56.33729 19.26286 36420 ft 497 kts 268°
2026-04-29 20:30 56.32423 19.14126 36422 ft 496 kts 267°
2026-04-29 20:30 56.31098 19.01905 36426 ft 496 kts 267°
2026-04-29 20:31 56.29763 18.89691 36432 ft 495 kts 267°
2026-04-29 20:31 56.28424 18.77587 36434 ft 495 kts 267°
2026-04-29 20:32 56.27068 18.65418 36437 ft 495 kts 267°
2026-04-29 20:32 56.25932 18.55296 36434 ft 495 kts 267°
2026-04-29 20:33 56.24327 18.41123 36449 ft 495 kts 266°
2026-04-29 20:33 56.22938 18.28991 36444 ft 496 kts 266°
2026-04-29 20:34 56.21211 18.16986 36438 ft 500 kts 262°
2026-04-29 20:34 56.19292 18.04937 36433 ft 504 kts 257°
2026-04-29 20:35 56.16005 17.93632 36446 ft 520 kts 239°
2026-04-29 20:35 56.11135 17.83962 36444 ft 528 kts 229°
2026-04-29 20:36 56.05932 17.74652 36440 ft 528 kts 229°
2026-04-29 20:36 56.00769 17.65277 36441 ft 528 kts 230°
2026-04-29 20:37 55.95672 17.55896 36445 ft 528 kts 230°
2026-04-29 20:37 55.90542 17.46469 36445 ft 528 kts 230°
2026-04-29 20:38 55.85403 17.37082 36445 ft 528 kts 230°
2026-04-29 20:38 55.80113 17.28056 36436 ft 533 kts 219°
2026-04-29 20:39 55.73681 17.21437 36443 ft 536 kts 201°
2026-04-29 20:39 55.66544 17.17566 36445 ft 536 kts 195°
2026-04-29 20:40 55.59361 17.14271 36452 ft 535 kts 191°
2026-04-29 20:40 55.52056 17.11597 36444 ft 535 kts 189°
2026-04-29 20:41 55.44796 17.09003 36445 ft 535 kts 190°
2026-04-29 20:41 55.37453 17.06323 36442 ft 536 kts 190°
2026-04-29 20:42 55.30171 17.03635 36445 ft 536 kts 190°
2026-04-29 20:42 55.22872 17.00943 36442 ft 536 kts 190°
2026-04-29 20:43 55.15609 16.98279 36447 ft 536 kts 190°
2026-04-29 20:43 55.08332 16.95623 36445 ft 536 kts 190°
2026-04-29 20:44 55.02209 16.93396 36442 ft 536 kts 189°
2026-04-29 20:44 54.94948 16.90764 36442 ft 536 kts 189°
2026-04-29 20:45 54.87623 16.88119 36443 ft 536 kts 189°
2026-04-29 20:45 54.80348 16.85501 36444 ft 536 kts 189°
2026-04-29 20:46 54.73021 16.82874 36441 ft 536 kts 189°
2026-04-29 20:46 54.65698 16.80259 36442 ft 536 kts 189°
2026-04-29 20:47 54.58430 16.77672 36440 ft 536 kts 189°
2026-04-29 20:47 54.51095 16.75072 36444 ft 536 kts 189°
2026-04-29 20:48 54.43816 16.72500 36438 ft 536 kts 189°
2026-04-29 20:48 54.36498 16.69924 36437 ft 536 kts 189°
2026-04-29 20:49 54.29164 16.67352 36438 ft 536 kts 189°
2026-04-29 20:49 54.21829 16.64789 36438 ft 536 kts 189°
2026-04-29 20:50 54.14511 16.62241 36430 ft 536 kts 188°
2026-04-29 20:50 54.07209 16.59707 36431 ft 536 kts 188°
2026-04-29 20:51 53.99898 16.57179 36436 ft 536 kts 188°
2026-04-29 20:51 53.92613 16.54669 36430 ft 536 kts 188°
2026-04-29 20:52 53.85310 16.52026 36419 ft 536 kts 190°
2026-04-29 20:52 53.78011 16.49205 36424 ft 536 kts 190°
2026-04-29 20:53 53.70782 16.46415 36427 ft 536 kts 190°